Location: Newark
(48.6767°N, 1.3256°E)
Time: 08:57:55
(UTC+00:00)

ISS - Pass Details

Date: 26 November 2019
Orbit: 411 x 421 km, 51.6° (Epoch: 09 December)

Event Time Altitude Azimuth Distance (km) Brightness Sun altitude
Rises 17:22:35 0° 232° (SW) 2,347 1.5 -12.5°
Reaches altitude 10° 17:24:41 10° 227° (SW) 1,489 0.1 -12.8°
Maximum altitude 17:27:56 51° 151° (SSE) 531 -3.4 -13.4°
Enters shadow 17:29:33 26° 86° (E) 872 -2.7 -13.6°
